Location: Newark
(44.6028°N, 124.0883°W)
Time: 08:20:49
(UTC+00:00)

Vanguard 1 - Pass Details

Date: 26 October 2019
Orbit: 652 x 3831 km, 34.2° (Epoch: 20 November)

Event Time Altitude Azimuth Distance (km) Brightness Sun altitude
Rises 02:34:55 0° 241° (WSW) 3,523 14.1 -14.7°
Reaches altitude 10° 02:37:09 10° 234° (SW) 2,808 13.3 -15.1°
Maximum altitude 02:43:31 41° 165° (SSE) 1,964 11.4 -16.2°
Enters shadow 02:50:39 20° 109° (ESE) 3,645 12.4 -17.5°
Drops below altitude 10° 02:54:32 10° 101° (E) 4,834 - -18.2°
Sets 02:59:43 0° 96° (E) 6,385 - -19.1°
